Jackson Hawkins Field, MS

4:54 PM CST on January 22, 2018 (GMT -0600)
Hawkins

Weather History for KHKS - October, 2013

Change the Weather History Date:

Tuesday, October 1, 2013

  Actual Average (KJAN) Record (KJAN)
Temperature  
Mean Temperature 78 °F -  
Max Temperature 88 °F 82 °F 97 °F (1911)
Min Temperature 68 °F 57 °F 36 °F (1984)
Cooling Degree Days 12    
Growing Degree Days 28 (Base 50)    
Moisture  
Dew Point 68 °F    
Average Humidity 76    
Maximum Humidity 93    
Minimum Humidity 51    
Precipitation  
Precipitation 0.00 in - - ()
Sea Level Pressure  
Sea Level Pressure 30.00 in    
Wind  
Wind Speed 6 mph (SE)    
Max Wind Speed 9 mph    
Max Gust Speed -    
Visibility 9 miles    
Events      
Averages and records for this station are not official NWS values.
T = Trace of Precipitation, MM = Missing Value Source: NWS Daily Summary

Daily Weather History Graph

Daily Weather History Graph

Search for Another Location

Airport or City:

Trip Planner

Search our weather history database for the weather conditions in past years. The results will help you decide how hot, cold, wet, or windy it might be!

Date:

Astronomy

Oct. 01, 2013 Rise Set
Actual Time 6:55 AM CDT 6:45 PM CDT
Civil Twilight 6:30 AM CDT 7:09 PM CDT
Nautical Twilight 6:02 AM CDT 7:38 PM CDT
Astronomical Twilight 5:33 AM CDT 8:06 PM CDT
Moon 3:39 AM CDT (10/1) 4:40 PM CDT (10/1)
Length of Visible Light 12h 39m
Length of Day
11h 50m
Waning Crescent, 12% of the Moon is Illuminated
Oct 1
Waning Crescent
Oct 4
New
Oct 11
First Quarter
Oct 18
Full
Oct 26
Last Quarter

Hourly Weather History & Observations

Time (CDT) Temp. Heat Index Dew Point Humidity Pressure Visibility Wind Dir Wind Speed Gust Speed Precip Events Conditions
12:53 AM 70.0 °F - 66.9 °F 90% 29.96 in 8.0 mi SE 8.1 mph - N/A   Clear
1:53 AM 70.0 °F - 66.9 °F 90% 29.96 in 7.0 mi SE 5.8 mph - N/A   Clear
2:14 AM 69.8 °F - 66.2 °F 88% 29.98 in 7.0 mi SE 4.6 mph - N/A   Partly Cloudy
2:53 AM 70.0 °F - 66.9 °F 90% 29.96 in 7.0 mi SE 5.8 mph - N/A   Partly Cloudy
3:53 AM 70.0 °F - 66.9 °F 90% 29.96 in 7.0 mi ESE 5.8 mph - N/A   Clear
4:53 AM 69.1 °F - 66.0 °F 90% 29.98 in 7.0 mi ESE 4.6 mph - N/A   Clear
5:53 AM 69.1 °F - 66.0 °F 90% 30.00 in 8.0 mi ESE 5.8 mph - N/A   Clear
6:53 AM 68.0 °F - 66.0 °F 93% 30.01 in 6.0 mi ESE 5.8 mph - N/A   Partly Cloudy
7:53 AM 70.0 °F - 66.0 °F 87% 30.03 in 8.0 mi SE 5.8 mph - N/A   Clear
8:53 AM 72.0 °F - 66.9 °F 84% 30.05 in 10.0 mi SE 4.6 mph - N/A   Scattered Clouds
9:53 AM 75.0 °F - 68.0 °F 79% 30.05 in 10.0 mi SE 4.6 mph - N/A   Overcast
10:53 AM 80.1 °F 82.7 °F 68.0 °F 67% 30.05 in 10.0 mi SE 8.1 mph - N/A   Overcast
11:53 AM 81.0 °F 84.1 °F 69.1 °F 67% 30.04 in 10.0 mi ESE 4.6 mph - N/A   Overcast
12:53 PM 84.0 °F 87.0 °F 68.0 °F 58% 30.02 in 10.0 mi ESE 5.8 mph - N/A   Mostly Cloudy
1:53 PM 84.9 °F 87.6 °F 66.9 °F 55% 30.00 in 10.0 mi ESE 6.9 mph - N/A   Partly Cloudy
2:53 PM 87.1 °F 89.9 °F 66.9 °F 51% 29.98 in 10.0 mi SSE 9.2 mph - N/A   Scattered Clouds
3:53 PM 84.9 °F 88.2 °F 68.0 °F 57% 29.97 in 10.0 mi ESE 5.8 mph - N/A   Scattered Clouds
4:53 PM 84.0 °F 87.0 °F 68.0 °F 58% 29.97 in 10.0 mi ESE 8.1 mph - N/A   Clear
5:53 PM 82.0 °F 84.9 °F 68.0 °F 62% 29.99 in 10.0 mi SE 6.9 mph - N/A   Clear
6:53 PM 80.1 °F 82.9 °F 69.1 °F 69% 29.99 in 10.0 mi SE 5.8 mph - N/A   Clear
7:53 PM 79.0 °F - 69.1 °F 72% 30.00 in 10.0 mi SE 5.8 mph - N/A   Partly Cloudy
8:53 PM 78.1 °F - 69.1 °F 74% 30.01 in 10.0 mi ESE 3.5 mph - N/A   Clear
9:53 PM 77.0 °F - 70.0 °F 79% 30.03 in 10.0 mi SSE 5.8 mph - N/A   Clear
10:53 PM 75.9 °F - 70.0 °F 82% 30.03 in 10.0 mi ESE 4.6 mph - N/A   Clear
11:53 PM 75.0 °F - 70.0 °F 84% 30.03 in 10.0 mi SE 3.5 mph - N/A   Clear